Home   Weather   Ponce   Past weeks
Flag for Puerto Rico

Past Weather in Ponce, Puerto Rico — Yesterday and Last 2 Weeks

Now
75 °F

Clear.


Feels Like: 75 °F
Forecast: 87 / 76 °F
Wind: 5 mph from East

Location: Aquadilla / Borinquen

Current Time: Jul 19, 2019 at 11:22:01 pm

Latest Report: Jul 19, 2019 at 10:50 pm


Visibility: 10 mi

Pressure: 30.08 "Hg

Humidity: 83%

Dew Point: 70 °F

Location of PonceLocation

Past Weather in Ponce — Graph

°F

Ponce Temperature Yesterday

Maximum temperature yesterday: 88 °F (at 11:50 am)
Minimum temperature yesterday: 73 °F (at 6:50 am)
Average temperature yesterday: 83 °F

High & Low Weather Summary for the Past Weeks

 TemperatureHumidityPressure
High88 °F (Jul 5, 10:50 am)100% (Jul 5, 1:50 pm)30.14 "Hg (Jul 5, 1:50 pm)
Low73 °F (Jul 7, 7:50 pm)62% (Jul 7, 2:50 pm)29.99 "Hg (Jul 11, 4:50 pm)
Average82 °F79%30.07 "Hg
* Reported Jul 5 6:50 am — Jul 19 9:50 pm, Ponce. Weather by CustomWeather, © 2019

Note: Actual official high and low records may vary slightly from our data, if they occured in-between our weather recording intervals... More about our weather records

Advertising

Ponce Weather History for the Previous 24 Hours

Scroll right to see more
 ConditionsComfort  
Time TempWeatherWind HumidityBarometerVisibility
9:50 pm
Fri, Jul 19
75 °FClear.5 mph89%30.08 "Hg10 mi
8:50 pm77 °FClear.5 mph83%30.06 "Hg10 mi
7:50 pm79 °FSunny.6 mph79%30.06 "Hg10 mi
6:50 pm81 °FSunny.3 mph79%30.04 "Hg10 mi
5:50 pm82 °FSunny.7 mph74%30.04 "Hg10 mi
4:50 pm84 °FSunny.9 mph66%30.03 "Hg10 mi
3:50 pm81 °FScattered clouds.9 mph74%30.07 "Hg10 mi
2:50 pm81 °FThundershowers. More clouds than sun.8 mph70%30.08 "Hg10 mi
1:50 pm88 °FBroken clouds.21 mph75%30.07 "Hg10 mi
12:50 pm88 °FSunny.22 mph75%30.07 "Hg10 mi
11:50 am88 °FScattered clouds.21 mph70%30.09 "Hg10 mi
10:50 am88 °FScattered clouds.17 mph66%30.10 "Hg10 mi
9:50 am86 °FSunny.16 mph70%30.09 "Hg10 mi
8:50 am84 °FScattered clouds.15 mph74%30.09 "Hg10 mi
7:50 am81 °FSunny.10 mph84%30.08 "Hg10 mi
6:50 am79 °FClear.8 mph89%30.07 "Hg10 mi
Weather by CustomWeather, © 2019

See weather overview